{"data":{"norad_id":68470,"epoch":"2026-09-19T19:03:10.982304Z","epoch_age_seconds":129946,"freshness":"FRESH","line1":"1 68470U 26067BG  26262.79387711  .00004167  00000+0  20558-3 0  9997","line2":"2 68470  97.4578 219.6173 0008830  98.0616 262.1621 15.18426914 26284","mean_motion":15.18426914,"eccentricity":0.000883,"inclination_deg":97.4578,"raan_deg":219.6173,"arg_perigee_deg":98.0616,"mean_anomaly_deg":262.1621,"bstar":0.00020558,"rev_number":2628,"period_min":94.834989206468,"perigee_km":504.51156435155,"apogee_km":516.67706385226,"semimajor_km":6888.7313141019,"source":"CELESTRAK","updated_at":"2026-09-20T09:00:24.240613Z"}}